Starlink 34652

operational
NORAD ID: 64772 Int'l Des: 2025-147 Owner: SPXS Country: US Constellation: starlink
LEOCIRCULAR

Starlink 34652について

説明を読み込み中...

リアルタイム位置

3D地球を読み込み中...

次回通過

高度履歴

Altitude vs Time

uPlot chart will show altitude changes over time

軌道要素

1 64772U 25147T 25340.92786557 .00072963 00000-0 24515-2 0 9994
2 64772 53.1577 313.3250 0001325 57.9808 302.1321 15.30200340 24557
Epoch: Dec 6, 2025 • Age: 13 hours

現在のステータス

高度 476.4 km
速度 7.63 km/s
衛星直下点 33.26°N, 98.71°E
打ち上げ日 Jul 8, 2025
運用期間 0.4 years
タイプ internet

技術仕様

分類 Payload
質量 575.00 kg
乾燥質量 530.00 kg
総質量 575.00 kg
長さ 0.30 m
直径 4.10 m
スパン 29.00 m
形状 Box + pan
製造者 SPXS
バスタイプ Starlink V2MO
フェーズステータス In Orbit
所有者/国 SPXS/US

大規模コンステレーション

Loading constellations...